Hourly Data Report for October 03, 2017

All times are specified in Local Standard Time (LST). Add 1 hour to adjust for Daylight Saving Time where and when it is observed.

PARRSBORO
NOVA SCOTIA

45°24'48.000" N
64°20'49.000" W
30.90 m
8204402
71493
APR

Download Data

Hourly Data (October 2017)
Hourly Data Report for October 3, 2017
Temp Definition
°C
Dew Point Temp Definition
°C
Rel Hum Definition
%
Wind Dir Definition
10's deg

Wind Spd Definition
km/h
Visibility Definition
km
Stn Press Definition
kPa
Hmdx Definition


Wind Chill Definition


Weather Definition


TIME
00:00 1.0 0.7 98   0   103.04     LegendNANA
01:00 1.6 1.2 97 21 3   103.10     LegendNANA
02:00 0.7 0.4 98 33 2   103.13     LegendNANA
03:00 0.2 -0.1 98 0 1   103.16     LegendNANA
04:00 -0.3 -0.5 98 30 5   103.20   -2 LegendNANA
05:00 -0.2 -0.5 98 29 4   103.23   -1 LegendNANA
06:00 -1.6 -1.8 99   0   103.28     LegendNANA
07:00 1.8 1.6 99 36 2   103.33     LegendNANA
08:00 5.1 4.3 94   0   103.33     LegendNANA
09:00 9.2 5.2 76 5 5   103.36     LegendNANA
10:00 11.5 4.9 64 2 11   103.40     LegendNANA
11:00 12.8 3.3 52 25 4   103.31     LegendNANA
12:00 13.0 3.9 54 32 6   103.31     LegendNANA
13:00 13.3 5.0 57 24 11   103.29     LegendNANA
14:00 12.3 5.5 63 25 8   103.23     LegendNANA
15:00 11.8 6.0 67 26 7   103.13     LegendNANA
16:00 11.5 6.0 69 25 7   103.04     LegendNANA
17:00 11.0 6.5 74 25 3   102.95     LegendNANA
18:00 10.2 6.1 75 25 4   102.90     LegendNANA
19:00 9.4 6.3 81 26 4   102.91     LegendNANA
20:00 7.0 4.9 87   0   102.87     LegendNANA
21:00 9.8 7.8 88 25 3   102.78     LegendNANA
22:00 10.7 8.0 84 26 10   102.73     LegendNANA
23:00 10.2 8.1 87 25 7   102.68     LegendNANA

Notes on Data Quality.

Legend

  • E = Estimated
  • M = Missing
  • NA = Not Available
  • ‡ = Partner data that is not subject to review by the National Climate Archives
Date modified: